EW6790 Weather Reports


time (UTC)temp
C
wind
direction
speed
KPH
gust
KPH
rain 1hr
cm
rain 24hr
cm
rain mn
cm
humidity
%
barometer
mb
20260505151520 8 264 3.2 11.3 0.00 0.00 0.00 50 1011.0
20260505124527 -17 0.0 0.0 0.00 0.00 0.00 1010.0
20260505123005 -17 0.0 0.0 0.00 0.00 0.00 1010.0
20260505121502 -17 0.0 0.0 0.00 0.00 0.00 1009.8
20260505120100 -17 0.0 0.0 0.00 0.00 0.00 1009.7
20260505114535 -17 0.0 0.0 0.00 0.00 0.00 1009.4
20260505113012 -17 0.0 0.0 0.00 0.00 0.00 1009.1
20260505111508 -17 0.0 0.0 0.00 0.00 0.00 1008.8
20260505101524 2 293 1.6 4.8 0.00 0.00 0.00 70 1008.0
20260505100004 2 299 1.6 3.2 0.00 0.00 0.00 70 1007.9
20260505094501 2 307 0.0 4.8 0.00 0.00 0.00 70 1008.0
20260505093043 2 280 0.0 3.2 0.00 0.00 0.00 69 1007.9
20260505091539 2 278 0.0 3.2 0.00 0.00 0.00 66 1007.9
20260505090036 3 299 0.0 3.2 0.00 0.00 0.00 65 1007.7
20260505084518 3 298 0.0 4.8 0.00 0.00 0.00 65 1007.6
20260505083057 3 302 0.0 3.2 0.00 0.00 0.00 63 1007.5
20260505081553 3 312 1.6 3.2 0.00 0.00 0.00 62 1007.3
20260505080038 4 309 1.6 3.2 0.00 0.00 0.00 61 1007.2
20260505074531 4 311 1.6 4.8 0.00 0.00 0.00 60 1007.1
20260505073019 5 314 1.6 4.8 0.00 0.00 0.00 58 1007.0
20260505071515 5 308 1.6 4.8 0.00 0.00 0.00 56 1006.9
20260505070048 6 314 3.2 9.7 0.00 0.00 0.00 54 1006.8
20260505064548 6 313 8.0 17.7 0.00 0.00 0.00 53 1006.9
20260505063034 6 295 3.2 11.3 0.00 0.00 0.00 54 1007.0
20260505061546 6 342 8.0 16.1 0.00 0.00 0.00 54 1006.9
20260505060034 6 318 6.4 14.5 0.00 0.00 0.00 55 1006.9
20260505054552 6 333 6.4 12.9 0.00 0.00 0.00 54 1006.8
20260505053032 5 333 4.8 9.7 0.00 0.00 0.00 55 1006.7
20260505051525 6 309 1.6 4.8 0.00 0.00 0.00 54 1006.6
20260505041600 6 325 0.0 0.0 0.00 0.00 0.00 52 1006.8
20260505040035 7 325 0.0 4.8 0.00 0.00 0.00 50 1006.8
20260505034532 7 327 3.2 11.3 0.00 0.00 0.00 49 1006.8
20260505033011 8 325 4.8 11.3 0.00 0.00 0.00 48 1006.9
20260505031524 8 354 6.4 14.5 0.00 0.00 0.00 47 1006.8
20260505030046 8 10 6.4 17.7 0.00 0.00 0.00 46 1006.6
20260505024543 9 13 9.7 24.1 0.00 0.00 0.00 45 1006.5
20260505023025 9 324 11.3 27.4 0.00 0.00 0.00 45 1006.1
20260505021522 10 325 12.9 22.5 0.00 0.00 0.00 44 1005.8
20260505020058 10 316 11.3 25.7 0.00 0.00 0.00 42 1005.5
20260505014601 10 326 16.1 25.7 0.00 0.00 0.00 42 1005.0
20260505013033 11 319 11.3 25.7 0.00 0.00 0.00 42 1004.7
20260505011534 11 335 11.3 27.4 0.00 0.00 0.00 42 1004.4
20260505010007 11 290 11.3 25.7 0.00 0.00 0.00 42 1004.1
20260505004508 12 325 8.0 19.3 0.00 0.00 0.00 42 1003.8
20260505003045 12 302 8.0 24.1 0.00 0.00 0.00 42 1003.6
20260505001543 12 330 11.3 25.7 0.00 0.00 0.00 42 1003.5
20260505000036 12 325 14.5 35.4 0.00 0.00 0.00 41 1003.2
20260504234519 13 306 12.9 38.6 0.00 0.00 0.00 42 1003.2
20260504233100 13 322 16.1 30.6 0.00 0.00 0.00 41 1002.7
20260504231553 14 315 11.3 29.0 0.00 0.00 0.00 40 1002.5
20260504230055 15 312 14.5 35.4 0.00 0.00 0.00 39 1002.4
20260504224536 16 300 11.3 37.0 0.00 0.00 0.00 36 1002.4
20260504223034 16 337 9.7 27.4 0.00 0.00 0.00 36 1002.0
20260504221542 16 344 11.3 27.4 0.00 0.00 0.00 36 1001.7
20260504220029 16 288 11.3 35.4 0.00 0.00 0.00 34 1001.5
20260504214526 17 268 9.7 32.2 0.00 0.00 0.00 34 1001.4
20260504213027 17 351 8.0 35.4 0.00 0.00 0.00 33 1001.1
20260504211524 17 328 11.3 25.7 0.00 0.00 0.00 34 1001.0
20260504210005 16 337 17.7 37.0 0.00 0.00 0.00 33 1001.1
20260504204504 17 285 17.7 37.0 0.00 0.00 0.00 34 1001.1
20260504203049 17 318 14.5 32.2 0.00 0.00 0.00 31 1000.8
20260504201543 17 341 14.5 30.6 0.00 0.00 0.00 29 1001.0
20260504200021 17 307 12.9 29.0 0.00 0.00 0.00 29 1001.0
20260504194518 18 290 12.9 29.0 0.00 0.00 0.00 27 1000.9
20260504193117 18 295 12.9 27.4 0.00 0.00 0.00 28 1000.7
20260504191607 17 300 8.0 20.9 0.00 0.00 0.00 36 1000.6
20260504190116 18 308 11.3 53.1 0.00 0.00 0.00 29 1000.3
20260504184533 19 309 9.7 25.7 0.00 0.00 0.00 33 1000.2
20260504183032 18 293 11.3 38.6 0.00 0.00 0.00 36 1000.0
20260504181513 19 296 9.7 22.5 0.00 0.00 0.00 34 999.9
20260504180011 19 288 8.0 30.6 0.00 0.00 0.00 34 999.5
20260504174552 19 300 11.3 25.7 0.00 0.00 0.00 34 999.4
20260504173049 18 297 8.0 32.2 0.00 0.00 0.00 34 999.4
20260504171535 18 310 12.9 25.7 0.00 0.00 0.00 37 999.3